Overview Statistics Trail Chart Weather Telemetry Raw packets
 

This is the latest recevied weather packets stored in our database for station/object WX6HNX-12. If no packets are shown the sender has not sent any weather packets the latest 10 day(s).

<< 18 19 20 21 22 23 24 >>
Time Temp. Humidity Pressure Rain* Wind** Luminosity Snow
1777675427 32.78° C 20% 1009.9 hPa 0 mm - - -
1777674826 32.78° C 19% 1010.1 hPa 0 mm - - -
1777674530 32.78° C 20% 1010.2 hPa 0 mm - - -
1777674107 32.78° C 21% 1010.2 hPa 0 mm - - -
1777673495 32.78° C 21% 1010.4 hPa 0 mm - - -
1777671275 32.22° C 24% 1011 hPa 0 mm - - -
1777670976 32.22° C 23% 1011 hPa 0 mm - - -
1777670676 32.22° C 22% 1011.1 hPa 0 mm - - -
1777670376 32.22° C 24% 1011.1 hPa 0 mm - - -
1777670075 32.22° C 24% 1011.1 hPa 0 mm - - -
1777669476 31.67° C 23% 1011.3 hPa 0 mm - - -
1777669180 31.67° C 25% 1011.3 hPa 0 mm - - -
1777668876 31.67° C 24% 1011.4 hPa 0 mm - - -
1777668041 31.11° C 25% 1011.5 hPa 0 mm - - -
1777667741 31.11° C 24% 1011.5 hPa 0 mm - - -
1777667441 31.11° C 24% 1011.6 hPa 0 mm - - -
1777667144 31.11° C 24% 1011.6 hPa 0 mm - - -
1777666841 31.11° C 24% 1011.6 hPa 0 mm - - -
1777666542 31.11° C 25% 1011.7 hPa 0 mm - - -
1777666241 31.11° C 26% 1011.7 hPa 0 mm - - -
1777665942 31.11° C 27% 1011.9 hPa 0 mm - - -
1777665641 31.11° C 26% 1012 hPa 0 mm - - -
1777665341 30.56° C 28% 1012.1 hPa 0 mm - - -
1777665042 30° C 29% 1012.1 hPa 0 mm - - -
1777664741 30.56° C 27% 1012.2 hPa 0 mm - - -

* Rain latest hour (hover to see other rain measurements)
** Current wind speed in m/s (hover to see current wind gust speed)